Tracking 21076 objects as of 9-Aug-2020
HD Live streaming from Space Station
objects crossing your sky now
Track the most recent launched group of Starlink satellites

DICE 1

Track DICE 1 now!
10-day predictions
DICE 1 is classified as:


NORAD ID: 37851
Int'l Code: 2011-061B
Perigee: 436.5 km
Apogee: 685.2 km
Inclination: 101.7 °
Period: 95.7 minutes
Semi major axis: 6931 km
RCS: 0.0809 m2 (small)
Launch date: October 28, 2011
Source: United States (US)
Launch site: AIR FORCE WESTERN TEST RANGE (AFWTR)
aabbcc
Your satellite tracking list
Your tracking list is empty




NASA's NSSDC Master Catalog

Two Line Element Set (TLE):
1 37851U 11061B   20221.86781007 +.00000289 +00000-0 +23206-4 0  9993
2 37851 101.7367 330.4372 0179354 306.7734 051.7129 15.04282095478800
Source of the keplerian elements: AFSPC